Wind_Speed
20 19 18 18 16 16 16 15 13 12 12 12 12 15 19 21 23 24 24 24 24 24 23 23 22 21 19 17 17 17 16 16 15 15 15 14 14 14 13 13 12 11 10 9 7 7 6 6 7 7 7 7 7 7 7 7 7 6 6 5 6 6 6
19 20 20 19 18 17 16 16 15 13 13 13 13 13 15 18 21 22 24 24 24 25 24 24 24 23 21 19 18 17 17 17 16 15 14 14 13 13 13 12 11 10 8 7 6 6 5 5 6 6 7 8 8 8 8 8 8 7 7 7 7 7 7
16 18 20 20 19 18 17 17 15 14 14 15 13 12 13 15 18 21 24 25 25 25 25 25 24 24 23 22 19 18 18 17 17 16 15 15 15 15 14 12 11 9 7 6 6 6 6 5 6 7 8 9 9 10 10 10 10 10 10 9 8 8 8
14 16 18 20 21 20 19 19 17 16 16 15 15 14 14 15 17 20 23 24 25 25 25 25 25 25 24 22 21 19 18 18 17 17 17 17 17 16 14 13 11 10 8 7 6 6 7 6 7 9 10 11 11 11 12 12 12 12 11 10 9 8 8
14 14 15 16 19 21 20 19 18 17 16 16 17 17 17 16 16 17 20 22 23 23 24 26 26 26 25 24 22 21 20 19 18 18 18 18 17 16 14 13 12 11 10 8 8 7 8 8 8 10 12 12 13 13 14 14 13 12 11 9 9 8 8
17 16 13 11 13 17 19 20 20 18 16 16 18 19 18 15 13 15 18 20 22 23 24 25 25 26 25 24 23 22 21 20 19 18 18 17 16 16 15 15 14 13 11 10 10 9 9 9 9 11 13 14 15 15 15 14 13 11 10 9 8 8 7
22 18 16 12 11 13 17 22 22 19 18 19 20 21 19 15 14 15 17 19 21 23 23 23 23 24 24 25 24 23 21 20 19 19 18 17 16 16 16 15 14 14 13 12 11 10 11 11 11 12 14 15 16 16 15 14 13 11 10 9 8 8 7
27 24 20 16 14 13 16 22 23 18 18 21 22 22 19 17 16 16 18 19 21 22 22 22 22 23 24 25 25 24 23 22 21 20 19 18 17 18 17 16 15 15 14 13 12 11 12 12 12 13 15 16 17 17 16 14 12 11 10 9 8 7 7
30 28 24 20 18 16 18 22 21 14 16 21 24 23 20 18 17 17 19 20 21 21 21 22 22 23 25 25 25 25 25 24 22 21 20 19 19 19 18 17 16 15 14 14 14 12 12 13 14 14 16 17 17 17 16 15 13 12 11 10 9 8 7
29 27 25 24 23 20 22 24 20 13 16 21 24 24 22 20 19 19 20 20 20 21 22 22 23 23 24 25 26 26 26 25 24 22 20 20 20 20 19 18 17 15 15 15 14 13 13 13 14 15 16 17 18 18 17 15 14 13 12 11 10 8 7
32 30 28 27 26 24 25 26 20 14 16 20 24 24 23 22 21 21 20 20 20 21 21 21 21 21 22 23 25 25 25 25 24 23 21 21 21 21 20 20 18 16 16 15 13 13 13 13 14 15 16 17 18 19 18 16 15 13 12 11 10 9 8
38 38 36 33 30 27 28 28 23 18 18 21 24 25 24 23 22 21 21 21 20 20 19 19 20 21 22 23 23 24 24 24 24 24 24 23 23 23 22 21 19 18 17 16 15 14 13 14 15 16 17 18 19 20 19 18 16 14 13 11 10 9 8
44 43 41 39 35 33 33 32 28 25 23 23 25 27 26 25 24 22 22 21 20 19 18 18 19 21 22 22 23 23 23 24 24 25 26 26 25 25 23 22 21 21 20 18 17 16 14 14 15 17 18 19 19 20 20 19 18 16 15 13 11 10 9
48 46 44 42 38 37 37 36 33 31 29 28 29 30 30 29 27 25 24 23 21 19 18 17 17 19 21 22 23 23 24 25 26 26 27 27 28 26 25 24 23 22 22 20 19 17 16 16 16 17 18 19 20 20 21 20 19 18 16 15 13 12 10
47 46 45 44 42 41 40 39 37 35 33 32 31 33 35 34 31 30 29 26 24 22 20 18 17 18 20 21 22 24 25 26 26 27 27 27 27 26 25 25 24 24 23 22 21 20 19 18 18 18 18 19 19 20 20 21 20 20 18 17 15 14 12
46 45 46 47 45 45 44 42 41 40 38 35 32 33 36 37 35 34 32 30 28 26 23 21 19 19 19 20 21 23 24 25 25 26 26 26 26 26 26 26 25 25 24 23 22 22 21 20 20 19 18 18 19 19 20 20 21 21 20 19 18 16 15
45 46 48 49 48 47 46 45 44 44 43 40 36 33 35 38 38 37 35 34 32 30 28 25 23 21 20 20 20 21 21 23 24 25 26 26 27 27 27 27 27 27 26 25 24 23 23 22 21 20 20 19 19 19 19 20 21 22 22 22 21 20 18
46 48 50 51 50 50 49 49 48 48 47 46 42 38 36 37 39 39 38 37 36 34 32 30 27 24 23 22 21 21 20 21 22 24 25 26 27 28 29 29 29 29 28 27 26 26 25 24 23 22 22 22 21 20 20 20 21 22 23 23 23 22 21
49 50 54 54 52 52 52 52 52 51 50 49 46 43 40 39 40 40 40 38 38 38 36 34 32 29 27 25 24 22 22 21 21 22 24 25 27 28 29 29 29 29 30 29 29 29 28 26 25 25 24 24 23 23 22 22 23 23 23 23 24 23 23
53 54 57 58 57 56 56 55 54 53 51 50 49 46 45 44 43 42 42 40 39 40 39 37 36 34 32 30 27 25 24 23 22 22 22 23 25 27 28 29 29 30 30 31 31 30 29 28 28 27 27 26 25 25 25 25 25 25 25 24 24 24 24
57 58 59 60 60 60 59 58 56 54 51 50 49 48 48 48 47 45 44 43 42 42 41 40 38 36 35 35 33 31 29 27 25 24 24 23 24 24 25 27 28 29 30 31 31 31 30 30 30 30 29 29 28 27 27 27 28 27 27 26 25 25 25
60 61 62 62 62 62 62 61 59 57 55 52 50 49 50 51 51 50 47 46 44 43 43 42 40 38 36 36 36 36 34 32 30 29 28 27 26 25 24 25 26 28 29 30 30 30 30 31 31 31 31 31 30 29 28 29 29 29 28 28 28 27 25
61 62 61 61 62 63 62 62 62 59 56 54 52 51 52 53 54 53 51 49 48 46 45 44 42 41 39 37 36 36 36 35 34 32 31 30 28 27 25 25 26 26 27 27 28 29 29 30 30 31 31 31 31 31 30 31 31 31 30 30 30 29 27
63 61 60 60 61 62 62 62 61 59 56 55 54 54 54 55 56 55 54 52 51 49 47 45 44 44 42 39 37 37 37 37 35 34 33 32 30 29 27 27 27 26 26 26 26 27 28 29 30 31 31 31 31 31 31 32 33 33 32 32 32 31 29
67 63 62 63 61 60 60 61 60 59 57 56 55 55 54 52 53 54 54 54 54 52 49 47 45 44 43 42 40 39 39 37 34 32 32 32 31 30 29 29 28 28 27 26 26 26 26 27 28 29 29 30 30 30 30 31 32 33 33 33 33 32 31
67 65 63 64 62 58 59 62 61 59 58 57 55 55 53 50 49 50 51 52 53 53 51 49 46 44 44 44 43 41 39 38 33 30 29 30 31 31 31 31 30 29 28 27 27 26 27 26 26 27 27 28 29 29 29 30 31 32 33 33 33 33 33
61 63 62 61 60 60 61 63 63 61 59 58 56 54 52 50 49 49 49 49 50 50 49 48 46 46 47 46 45 44 42 40 36 31 29 29 30 32 32 32 31 31 30 29 28 27 27 26 26 25 26 27 27 28 28 29 30 32 32 32 32 32 33
59 60 62 60 59 60 62 63 64 63 61 59 57 55 53 51 51 50 50 50 48 46 46 46 47 49 50 49 48 46 43 42 39 34 31 30 31 31 32 33 33 33 32 32 31 29 28 27 26 25 25 25 26 26 27 28 29 30 31 31 31 32 32
62 59 61 62 60 60 61 61 61 60 59 57 55 54 52 51 51 51 51 50 47 45 45 46 49 51 50 49 50 47 44 44 42 37 34 33 32 32 32 33 34 35 35 34 33 32 30 28 27 26 25 24 24 24 25 27 29 29 30 31 31 31 31
69 62 59 58 57 57 58 61 61 60 57 54 52 52 51 48 48 48 49 48 47 46 46 47 50 51 50 49 49 46 44 46 46 41 37 36 35 34 34 34 35 36 37 37 36 35 33 30 28 27 25 25 24 24 25 26 27 28 30 31 32 32 30
74 68 60 56 57 56 54 57 62 62 59 56 52 51 51 48 45 44 44 44 47 48 48 47 49 50 51 51 49 44 43 47 47 43 40 38 38 37 36 36 37 37 38 38 38 37 35 33 31 29 26 25 25 25 26 27 28 28 29 31 32 33 32
77 73 65 59 60 61 57 56 59 60 60 58 55 53 52 50 48 44 41 40 45 50 51 48 47 47 48 50 48 44 44 47 46 42 40 40 40 39 39 39 39 39 39 39 39 38 37 35 33 31 29 27 25 26 28 29 29 28 29 30 32 33 33
79 77 72 65 63 64 61 58 58 59 60 61 59 57 55 53 51 49 44 41 43 48 51 50 46 45 45 46 46 47 48 50 47 42 40 41 42 41 41 41 42 41 40 39 38 38 38 37 36 34 31 29 27 27 29 30 31 31 31 30 31 32 33
81 79 76 72 67 64 62 58 57 57 60 63 63 61 60 58 55 53 50 46 44 46 49 50 48 47 45 44 44 46 49 54 54 48 43 43 44 44 43 43 43 42 41 39 37 37 37 37 36 35 33 31 30 30 30 30 32 32 31 31 33 35 35
84 81 79 77 73 68 64 60 57 56 58 62 65 64 62 60 57 54 52 50 49 49 50 49 49 49 47 44 43 43 46 51 56 54 49 46 47 46 45 45 44 43 41 39 38 37 36 35 35 34 34 33 33 33 32 31 31 32 33 35 37 37 36
87 85 83 81 78 74 68 64 62 61 59 60 62 63 62 60 57 55 52 51 52 54 53 51 51 51 49 47 46 47 47 48 51 52 51 50 49 48 47 47 46 44 42 40 39 37 36 35 34 34 34 34 34 34 33 32 31 33 36 37 38 37 36
90 87 85 83 81 79 74 68 67 67 66 63 62 62 61 59 57 55 52 52 54 56 55 53 52 53 52 51 50 51 51 51 50 51 52 53 52 52 51 50 48 46 44 42 40 38 36 36 35 34 34 34 34 34 34 33 33 35 36 37 37 37 37
92 89 87 85 82 79 76 73 71 71 70 68 67 65 62 59 57 56 54 53 56 58 57 55 53 53 54 54 54 54 54 54 54 55 55 55 55 55 54 52 50 48 46 44 42 40 39 38 37 36 35 34 34 33 33 33 33 34 36 37 38 38 38
Wind_Direction
202 203 204 207 210 205 200 201 201 198 205 217 217 206 200 199 199 200 200 198 195 196 193 189 186 185 189 194 190 187 191 193 193 192 190 186 182 183 184 182 181 182 182 181 180 178 169 159 159 163 164 165 171 172 166 162 161 159 155 150 147 141 137
212 208 205 205 207 203 200 204 205 203 206 215 222 214 202 199 200 200 201 201 198 197 196 193 189 187 190 194 194 189 189 194 197 198 199 197 193 193 194 191 189 190 189 182 174 169 161 153 151 152 153 158 164 165 162 159 158 154 147 140 134 127 123
221 218 212 206 204 204 203 204 205 206 207 211 218 215 204 200 200 201 202 203 201 198 198 198 194 192 193 194 195 193 191 193 197 199 201 203 204 203 201 199 197 195 195 188 172 162 157 152 146 142 144 152 156 158 159 156 151 144 136 129 121 114 112
218 221 219 212 208 207 206 204 203 204 205 208 212 209 204 203 202 202 204 205 204 200 198 200 199 198 196 196 196 197 195 195 197 200 201 204 208 208 206 205 202 199 199 193 177 165 160 157 150 142 142 148 151 154 153 148 143 137 131 124 116 108 104
219 222 224 223 219 215 212 207 203 204 205 208 210 209 208 206 205 204 204 205 206 203 201 201 202 202 199 198 199 200 199 197 198 202 204 205 207 209 209 207 205 205 204 196 185 175 167 164 156 147 145 148 150 151 149 144 141 137 131 124 116 109 102
222 230 232 234 232 224 216 208 204 203 207 211 211 212 211 205 202 202 202 202 203 205 204 203 204 205 203 202 201 202 203 202 201 203 206 208 207 207 209 208 207 208 209 203 194 183 173 170 164 154 150 151 152 152 151 148 144 141 135 129 123 114 107
215 224 228 233 243 236 220 210 203 202 210 213 211 213 211 201 198 200 199 199 201 204 205 204 203 206 207 206 205 205 206 207 206 205 206 207 207 209 211 210 209 210 211 209 203 190 180 176 171 162 156 156 157 156 156 154 151 147 142 136 131 125 119
214 215 221 232 241 239 225 210 200 202 217 216 212 215 212 203 202 201 197 197 199 201 202 202 201 202 205 208 208 207 208 209 209 207 205 204 207 211 213 211 211 211 211 211 208 198 187 182 177 170 164 162 162 162 162 160 158 154 150 145 141 135 130
215 213 217 224 227 234 233 211 196 206 227 219 212 212 210 206 204 201 198 197 196 196 198 200 200 200 203 206 207 207 208 210 211 210 207 205 207 211 213 213 213 211 210 211 210 203 195 187 183 177 172 169 168 168 167 166 164 162 158 155 152 148 144
217 215 217 216 216 230 236 216 202 219 233 220 212 209 208 206 205 203 200 196 193 193 195 198 200 200 202 205 207 208 207 209 211 211 209 208 210 212 213 216 216 213 214 215 212 208 201 194 190 185 179 176 174 173 174 172 170 169 166 163 161 160 158
212 211 213 213 214 227 232 220 215 229 228 218 213 209 206 206 206 207 202 195 192 191 192 195 198 200 201 205 209 210 208 208 209 210 209 209 212 213 214 217 217 216 218 220 217 212 205 198 196 193 187 183 181 180 180 179 178 176 173 171 169 169 169
215 212 209 208 209 218 224 220 220 225 217 211 212 209 206 205 206 208 204 198 194 189 188 192 194 197 201 203 208 209 209 209 208 208 209 209 211 213 214 216 217 217 219 220 220 218 211 201 198 197 195 191 188 187 186 185 183 182 181 179 178 178 178
225 223 216 211 209 211 214 213 212 213 208 204 207 206 203 202 205 207 205 201 195 188 186 189 192 196 200 202 205 207 207 207 207 207 208 209 211 212 214 215 216 217 218 218 219 220 217 209 202 200 200 198 195 194 193 191 190 189 188 186 186 187 187
228 228 223 219 215 211 211 208 204 204 202 197 198 199 198 198 201 203 203 200 196 189 185 185 191 195 199 201 203 204 205 206 206 208 209 210 213 213 214 216 217 218 219 219 218 217 218 216 210 205 204 203 202 200 199 198 196 196 195 194 195 195 196
223 225 223 221 216 211 211 208 201 200 199 196 195 195 196 197 199 201 201 198 195 190 186 185 189 192 195 199 202 203 205 207 207 209 210 213 215 216 216 217 218 221 222 222 220 218 218 218 217 213 209 207 207 206 204 202 202 204 204 205 207 207 206
216 219 218 216 213 210 211 210 204 199 199 201 200 198 198 198 199 200 200 198 195 192 189 188 189 191 193 195 199 202 206 208 209 210 212 214 215 216 217 218 219 222 224 223 223 222 220 220 221 220 217 213 211 210 207 206 206 209 211 213 215 215 215
212 214 213 211 209 208 211 212 208 203 201 204 207 206 204 202 201 201 201 198 196 194 193 191 189 192 194 194 197 200 203 206 209 211 211 213 214 215 216 218 219 221 223 223 224 224 224 223 223 224 223 221 217 213 211 210 211 213 215 217 219 220 221
211 211 209 207 207 208 210 213 212 209 205 206 209 210 211 209 206 205 203 200 197 195 195 193 190 190 193 196 197 197 200 203 205 208 211 212 214 216 216 218 219 219 221 222 222 224 225 225 224 224 225 226 224 220 216 214 216 217 217 218 220 222 224
210 210 207 206 206 207 209 212 214 214 211 210 212 213 213 214 212 210 208 205 200 198 197 195 192 191 192 195 197 196 198 201 202 205 208 210 213 215 217 218 219 219 220 220 221 222 223 224 224 224 225 227 227 225 222 220 221 221 221 220 221 222 225
209 211 209 207 206 206 209 213 215 216 215 215 217 217 215 214 214 213 211 209 205 203 202 199 197 195 194 195 197 196 197 200 203 206 208 210 213 214 216 218 218 219 220 220 221 222 222 223 224 225 226 227 227 227 226 226 226 227 226 225 225 224 225
209 211 210 209 208 207 209 214 217 218 217 218 220 220 218 216 215 215 214 212 210 208 206 204 203 202 200 198 196 196 196 198 200 205 209 213 216 216 216 217 218 219 220 221 222 222 222 223 224 225 226 227 227 228 228 229 230 231 231 231 231 229 227
210 211 210 209 208 209 210 213 215 217 218 219 220 220 218 215 214 215 215 214 213 212 210 208 208 207 208 206 203 198 196 196 198 201 206 211 215 217 217 217 218 220 221 222 223 223 224 224 225 225 227 227 228 229 230 231 233 234 234 235 236 235 233
210 212 210 207 207 209 212 214 215 216 216 217 219 219 217 215 213 213 214 215 214 214 213 212 210 210 212 214 214 209 202 198 197 199 203 208 211 213 214 216 218 220 222 223 224 224 225 225 226 227 228 229 229 228 229 231 234 235 236 236 237 238 238
209 210 209 208 208 208 212 215 217 218 217 215 216 216 215 214 212 211 212 214 214 214 215 215 215 214 214 215 219 219 214 205 199 198 202 206 209 210 211 214 217 220 222 222 223 225 225 226 227 229 230 231 231 230 230 231 234 235 236 237 238 239 239
207 209 209 210 210 209 211 214 216 216 216 215 213 212 211 210 211 211 210 212 213 213 215 217 218 218 217 216 218 221 222 216 207 201 201 204 208 210 211 213 216 219 221 222 223 225 226 227 228 230 231 233 234 233 233 233 235 237 238 238 239 239 240
207 210 210 210 211 211 213 215 215 215 215 215 213 211 210 210 212 214 214 213 213 213 214 217 219 220 220 219 217 218 222 224 219 211 205 206 209 213 214 214 216 218 221 222 223 225 227 228 229 229 231 233 234 236 236 236 237 239 239 240 241 241 241
207 210 211 211 212 215 215 215 216 216 215 214 213 213 213 213 215 218 218 218 217 214 214 217 219 221 222 221 219 217 219 223 223 218 212 210 212 215 217 217 218 219 221 223 224 225 228 229 230 230 230 231 234 236 238 239 240 241 241 241 241 242 242
208 208 212 213 214 215 215 214 215 216 217 216 215 216 217 217 217 218 219 222 222 218 216 218 221 222 224 224 221 217 216 221 223 220 216 216 217 219 221 221 222 222 223 225 226 226 228 230 231 232 232 233 234 235 238 241 243 244 245 244 242 241 242
211 206 207 211 212 212 214 214 213 213 215 216 216 218 219 217 217 218 219 221 222 220 218 220 223 225 227 224 219 214 215 221 223 219 217 219 221 222 224 225 225 226 226 228 228 228 228 229 232 234 236 237 237 237 238 239 242 245 248 250 248 244 242
215 209 204 204 205 206 210 215 214 212 214 217 219 219 219 218 216 217 219 221 222 222 221 223 225 227 226 222 217 215 217 221 221 217 215 218 222 224 227 228 228 229 230 231 231 230 229 229 231 234 237 239 240 240 240 240 241 242 245 249 252 251 248
217 215 209 203 200 201 205 212 215 216 216 218 220 219 218 216 214 214 218 223 224 223 223 223 225 227 225 221 219 219 220 219 218 216 214 215 220 224 228 231 232 232 232 232 233 234 232 231 231 233 235 238 241 243 244 244 243 243 244 246 250 253 254
219 220 218 211 204 203 205 208 214 218 218 217 217 216 215 213 211 213 218 225 227 225 221 221 222 222 220 218 218 219 216 214 215 216 214 214 218 222 226 231 235 235 234 234 234 235 235 234 234 234 234 236 238 241 244 246 246 246 246 247 248 251 253
221 222 222 218 211 207 207 207 209 214 217 217 216 215 216 216 217 221 225 230 232 226 218 215 216 217 216 216 217 217 215 214 215 216 214 214 217 220 223 229 234 236 238 238 237 237 237 236 236 237 236 236 237 240 243 245 247 248 248 249 251 251 251
222 223 223 222 218 214 210 208 206 208 213 218 219 219 220 223 225 229 232 234 234 227 216 212 214 216 216 216 218 218 218 219 220 220 217 215 217 220 222 227 232 236 238 240 239 237 237 238 238 239 239 236 236 239 242 244 247 248 249 250 252 251 250
223 222 223 223 223 221 216 213 211 209 210 216 221 224 225 226 227 231 233 234 232 227 220 216 217 217 217 218 221 223 223 224 224 224 221 217 217 219 222 225 230 234 236 237 238 237 237 237 238 239 239 236 234 237 242 244 246 248 248 248 249 251 252
225 223 222 222 224 225 222 217 216 216 214 215 220 225 227 228 230 232 233 232 229 225 223 221 220 220 220 221 224 226 227 227 225 222 219 217 217 219 221 224 227 231 234 235 236 236 236 235 236 237 239 237 234 236 240 243 245 246 246 246 249 252 254
229 226 223 222 223 225 225 221 220 220 220 220 221 225 227 228 231 234 234 230 227 225 223 223 222 223 224 225 226 227 227 227 224 220 218 217 217 218 220 223 226 229 231 233 235 235 235 235 234 235 237 236 234 235 239 242 245 246 247 248 249 251 253
231 230 227 224 223 224 224 224 223 223 224 225 225 224 225 227 230 234 234 231 227 226 226 226 227 228 228 227 227 227 227 227 226 224 221 220 219 219 220 222 225 227 229 231 232 234 234 234 234 235 237 238 236 236 239 244 247 248 249 250 250 250 252
Height
5887 5889 5891 5893 5895 5897 5899 5900 5902 5903 5905 5906 5906 5907 5908 5910 5911 5913 5915 5918 5920 5921 5924 5926 5927 5929 5931 5932 5934 5935 5937 5938 5939 5940 5941 5942 5943 5944 5944 5945 5946 5947 5949 5950 5950 5951 5952 5953 5954 5954 5954 5955 5955 5956 5956 5957 5957 5958 5958 5958 5959 5959 5958
5886 5888 5889 5892 5894 5895 5897 5899 5900 5902 5903 5904 5905 5907 5907 5908 5910 5912 5914 5916 5918 5920 5922 5924 5926 5927 5929 5931 5933 5935 5936 5937 5938 5939 5941 5942 5943 5943 5944 5945 5946 5947 5948 5949 5950 5951 5952 5952 5953 5953 5954 5954 5955 5955 5956 5956 5957 5957 5958 5959 5959 5959 5958
5886 5887 5888 5890 5892 5894 5895 5897 5899 5900 5902 5903 5904 5906 5907 5907 5908 5910 5912 5914 5916 5918 5921 5923 5925 5926 5927 5929 5931 5934 5936 5937 5937 5939 5940 5941 5942 5943 5944 5944 5945 5947 5948 5949 5950 5950 5951 5951 5952 5953 5953 5953 5954 5955 5955 5956 5957 5958 5958 5958 5959 5959 5959
5885 5886 5888 5889 5890 5892 5893 5895 5897 5899 5901 5902 5903 5904 5905 5906 5907 5908 5910 5912 5914 5917 5920 5921 5923 5925 5927 5928 5930 5932 5934 5936 5937 5938 5939 5940 5942 5943 5944 5944 5945 5946 5947 5948 5949 5950 5950 5951 5951 5952 5952 5953 5953 5954 5955 5956 5957 5958 5958 5958 5959 5959 5959
5884 5885 5886 5888 5889 5891 5892 5894 5896 5898 5900 5901 5902 5902 5903 5904 5906 5907 5909 5911 5913 5915 5917 5919 5921 5923 5925 5927 5929 5931 5933 5934 5936 5937 5938 5940 5941 5942 5943 5944 5944 5945 5946 5947 5948 5949 5950 5950 5951 5951 5952 5952 5953 5953 5954 5956 5957 5957 5958 5958 5959 5959 5959
5882 5884 5886 5888 5889 5890 5891 5893 5895 5897 5899 5900 5901 5901 5902 5903 5905 5906 5908 5909 5911 5913 5915 5917 5919 5921 5924 5926 5928 5930 5931 5933 5934 5936 5937 5938 5940 5941 5942 5943 5944 5944 5945 5946 5947 5948 5949 5950 5950 5951 5952 5952 5953 5953 5954 5955 5956 5957 5958 5958 5959 5959 5960
5878 5881 5884 5886 5888 5889 5890 5891 5893 5895 5896 5898 5899 5899 5900 5902 5903 5905 5906 5908 5909 5911 5913 5916 5918 5920 5922 5924 5926 5928 5930 5932 5933 5934 5936 5937 5939 5940 5941 5942 5943 5944 5944 5945 5946 5947 5948 5949 5950 5950 5951 5952 5953 5953 5954 5955 5956 5957 5958 5958 5959 5960 5960
5875 5878 5881 5884 5887 5888 5889 5889 5891 5893 5894 5896 5897 5898 5899 5901 5902 5904 5905 5906 5907 5909 5911 5913 5916 5918 5920 5922 5924 5926 5928 5930 5931 5933 5934 5936 5937 5938 5940 5942 5943 5943 5944 5944 5945 5946 5947 5948 5949 5950 5951 5952 5953 5953 5954 5955 5956 5957 5958 5959 5959 5960 5960
5873 5875 5878 5882 5885 5886 5888 5889 5889 5891 5892 5894 5895 5897 5898 5900 5901 5903 5904 5904 5906 5907 5909 5911 5913 5915 5917 5919 5922 5923 5925 5927 5929 5931 5933 5934 5935 5937 5938 5940 5941 5942 5943 5943 5944 5945 5946 5947 5948 5949 5950 5951 5952 5953 5954 5955 5956 5957 5958 5958 5959 5960 5960
5871 5873 5875 5878 5881 5883 5885 5887 5887 5888 5890 5892 5894 5896 5897 5898 5900 5901 5902 5903 5904 5905 5907 5908 5910 5913 5915 5917 5919 5921 5923 5925 5928 5930 5932 5933 5934 5935 5937 5938 5939 5941 5942 5942 5943 5944 5945 5946 5947 5948 5949 5950 5951 5952 5953 5954 5955 5956 5957 5958 5959 5959 5960
5866 5869 5871 5874 5877 5879 5882 5884 5885 5886 5889 5891 5893 5894 5896 5897 5898 5900 5901 5902 5902 5903 5905 5906 5908 5911 5913 5915 5917 5919 5921 5923 5925 5928 5930 5931 5932 5933 5935 5936 5938 5939 5940 5941 5942 5943 5944 5945 5946 5947 5948 5949 5950 5951 5952 5953 5955 5955 5956 5957 5958 5959 5959
5860 5861 5863 5867 5870 5874 5877 5880 5883 5885 5887 5889 5890 5892 5894 5895 5896 5898 5899 5900 5900 5901 5903 5904 5906 5908 5910 5912 5915 5917 5919 5921 5923 5926 5928 5929 5930 5931 5933 5934 5936 5937 5938 5939 5940 5941 5943 5944 5945 5946 5947 5948 5949 5950 5951 5952 5953 5954 5955 5956 5957 5958 5959
5856 5857 5858 5860 5863 5867 5870 5873 5877 5880 5882 5884 5886 5888 5890 5892 5893 5895 5897 5898 5899 5900 5901 5902 5904 5905 5907 5910 5912 5914 5917 5919 5921 5923 5924 5926 5928 5929 5931 5933 5934 5935 5937 5938 5939 5940 5941 5942 5943 5944 5945 5946 5947 5948 5950 5951 5952 5953 5954 5955 5956 5957 5958
5854 5855 5856 5858 5860 5863 5865 5868 5871 5874 5876 5878 5880 5882 5885 5887 5889 5891 5893 5895 5897 5898 5899 5900 5902 5903 5905 5907 5910 5912 5914 5916 5918 5920 5921 5923 5925 5927 5929 5931 5933 5934 5935 5936 5937 5938 5939 5940 5941 5942 5943 5944 5946 5947 5948 5949 5951 5952 5953 5954 5954 5955 5956
5849 5852 5854 5855 5858 5860 5862 5864 5867 5870 5872 5874 5876 5877 5879 5882 5884 5886 5889 5891 5893 5895 5897 5898 5900 5901 5903 5905 5907 5909 5911 5913 5915 5917 5919 5921 5923 5925 5927 5929 5931 5932 5933 5934 5935 5936 5937 5938 5939 5940 5942 5943 5944 5945 5946 5948 5949 5950 5951 5952 5953 5954 5954
5844 5847 5850 5852 5855 5857 5859 5861 5864 5866 5869 5871 5873 5874 5876 5878 5880 5882 5885 5888 5890 5893 5895 5896 5898 5900 5901 5903 5905 5907 5909 5911 5913 5915 5917 5919 5921 5923 5925 5926 5928 5930 5931 5932 5933 5934 5935 5936 5937 5939 5940 5941 5942 5943 5944 5946 5947 5948 5949 5950 5951 5952 5953
5838 5841 5845 5847 5850 5853 5855 5858 5860 5863 5866 5868 5870 5873 5874 5875 5877 5879 5881 5884 5886 5889 5891 5894 5896 5898 5900 5902 5903 5905 5907 5909 5911 5913 5915 5917 5918 5920 5922 5923 5925 5927 5929 5930 5931 5932 5933 5935 5936 5937 5938 5939 5940 5941 5942 5943 5945 5945 5946 5948 5949 5950 5951
5833 5836 5839 5842 5845 5848 5851 5853 5856 5859 5862 5864 5867 5870 5872 5874 5875 5876 5878 5880 5882 5885 5887 5890 5892 5895 5897 5899 5901 5903 5905 5907 5908 5910 5912 5914 5915 5917 5919 5920 5922 5924 5926 5927 5929 5930 5931 5932 5934 5935 5936 5937 5938 5939 5940 5941 5942 5943 5944 5945 5946 5947 5948
5829 5830 5832 5835 5838 5842 5845 5848 5851 5854 5857 5860 5862 5866 5869 5871 5873 5875 5877 5879 5881 5882 5883 5886 5888 5890 5893 5895 5897 5900 5902 5904 5906 5907 5909 5911 5912 5914 5916 5917 5919 5921 5923 5924 5925 5926 5928 5930 5931 5932 5933 5934 5935 5936 5937 5938 5939 5940 5941 5942 5943 5945 5946
5823 5824 5826 5827 5831 5835 5839 5842 5845 5848 5852 5855 5857 5860 5864 5867 5869 5871 5874 5877 5879 5880 5882 5883 5885 5886 5888 5890 5892 5895 5898 5900 5902 5905 5906 5908 5909 5911 5913 5914 5916 5918 5919 5920 5922 5923 5925 5927 5928 5929 5930 5932 5933 5933 5934 5935 5936 5936 5938 5939 5940 5942 5943
5815 5818 5820 5821 5824 5828 5832 5836 5840 5843 5846 5849 5852 5855 5858 5862 5865 5868 5870 5873 5875 5877 5880 5882 5884 5885 5886 5886 5887 5889 5892 5895 5898 5900 5903 5905 5907 5909 5910 5911 5913 5914 5915 5917 5918 5920 5922 5923 5924 5926 5927 5928 5930 5931 5932 5932 5933 5933 5934 5936 5937 5938 5940
5808 5811 5814 5816 5819 5822 5825 5829 5832 5835 5838 5841 5845 5848 5852 5856 5860 5863 5866 5868 5871 5874 5877 5879 5882 5885 5887 5887 5886 5885 5885 5887 5891 5894 5897 5900 5903 5906 5907 5909 5910 5911 5912 5913 5915 5917 5918 5920 5921 5922 5924 5925 5926 5928 5929 5930 5930 5930 5932 5933 5934 5935 5937
5802 5805 5809 5812 5814 5816 5820 5823 5825 5828 5832 5835 5838 5842 5845 5849 5853 5857 5861 5863 5866 5869 5873 5876 5879 5882 5884 5887 5889 5888 5885 5882 5883 5887 5892 5895 5898 5902 5904 5905 5907 5908 5909 5910 5912 5914 5915 5917 5918 5919 5920 5921 5923 5925 5926 5926 5927 5928 5929 5930 5931 5932 5934
5797 5802 5805 5808 5809 5811 5815 5817 5820 5823 5828 5832 5834 5836 5840 5843 5847 5851 5855 5858 5861 5864 5868 5872 5876 5878 5880 5884 5888 5891 5890 5885 5881 5881 5886 5891 5894 5898 5900 5902 5904 5905 5906 5907 5909 5910 5912 5913 5914 5915 5917 5918 5920 5921 5922 5923 5923 5924 5925 5926 5927 5928 5930
5792 5797 5800 5802 5804 5808 5811 5813 5816 5819 5823 5826 5829 5832 5836 5841 5843 5845 5849 5852 5855 5859 5863 5867 5871 5874 5877 5879 5883 5888 5891 5890 5885 5881 5883 5887 5891 5894 5897 5899 5900 5902 5903 5905 5906 5907 5909 5910 5911 5913 5914 5915 5916 5918 5919 5920 5920 5921 5922 5922 5923 5925 5926
5787 5791 5794 5796 5800 5803 5806 5809 5812 5816 5818 5821 5825 5829 5834 5839 5841 5842 5845 5849 5851 5853 5857 5861 5866 5870 5873 5875 5878 5883 5888 5891 5890 5886 5884 5886 5889 5891 5893 5896 5897 5899 5901 5902 5903 5904 5906 5907 5909 5910 5911 5912 5913 5914 5916 5917 5917 5918 5918 5919 5920 5921 5922
5783 5785 5788 5791 5794 5798 5801 5804 5807 5811 5814 5817 5821 5825 5829 5834 5837 5839 5842 5847 5849 5849 5852 5858 5862 5866 5869 5871 5874 5878 5882 5886 5888 5886 5884 5885 5887 5888 5891 5893 5895 5897 5898 5899 5900 5902 5903 5905 5906 5908 5909 5910 5910 5911 5912 5913 5914 5914 5915 5915 5916 5917 5918
5776 5779 5782 5785 5788 5792 5795 5798 5801 5805 5808 5812 5816 5819 5823 5828 5832 5835 5837 5842 5846 5847 5850 5854 5858 5860 5863 5867 5870 5872 5875 5880 5883 5883 5883 5883 5884 5886 5888 5891 5893 5894 5896 5897 5898 5899 5900 5902 5904 5905 5906 5907 5908 5909 5910 5910 5910 5910 5911 5912 5913 5914 5914
5768 5772 5775 5778 5781 5785 5789 5793 5796 5799 5803 5808 5811 5814 5818 5822 5827 5830 5833 5837 5841 5844 5846 5849 5853 5855 5858 5862 5865 5867 5870 5874 5878 5879 5879 5880 5881 5883 5886 5888 5890 5892 5893 5895 5896 5897 5898 5899 5901 5902 5904 5905 5906 5907 5908 5907 5907 5907 5908 5908 5908 5909 5910
5761 5764 5768 5771 5775 5779 5783 5787 5791 5794 5797 5802 5806 5809 5813 5817 5821 5824 5828 5832 5836 5839 5842 5844 5847 5850 5853 5857 5860 5862 5865 5869 5872 5874 5875 5876 5878 5880 5882 5884 5886 5888 5890 5892 5893 5894 5896 5897 5899 5900 5901 5902 5903 5904 5905 5905 5904 5905 5905 5904 5904 5905 5906
5755 5757 5761 5765 5768 5771 5775 5779 5784 5788 5791 5795 5800 5804 5807 5811 5815 5819 5824 5828 5831 5834 5837 5839 5842 5845 5848 5852 5855 5858 5860 5864 5868 5870 5871 5872 5874 5876 5878 5880 5882 5884 5886 5888 5890 5892 5893 5895 5896 5897 5898 5899 5900 5901 5901 5901 5901 5901 5902 5901 5901 5901 5902
5748 5751 5754 5758 5761 5765 5768 5772 5777 5781 5785 5789 5794 5798 5802 5805 5809 5814 5819 5823 5826 5829 5832 5835 5838 5841 5844 5846 5850 5853 5856 5859 5862 5865 5866 5868 5870 5872 5874 5876 5877 5879 5881 5883 5886 5888 5890 5892 5893 5894 5895 5896 5897 5898 5898 5897 5898 5898 5898 5898 5898 5898 5899
5740 5744 5748 5751 5755 5759 5763 5767 5771 5775 5780 5784 5788 5792 5796 5800 5804 5808 5813 5817 5821 5824 5827 5830 5834 5837 5840 5842 5845 5848 5851 5854 5856 5859 5861 5863 5865 5868 5870 5871 5873 5875 5877 5879 5882 5884 5886 5888 5889 5890 5891 5893 5894 5894 5894 5894 5894 5894 5895 5895 5895 5895 5895
5733 5737 5741 5745 5749 5753 5757 5761 5765 5769 5774 5779 5782 5786 5789 5794 5798 5802 5807 5811 5815 5818 5822 5825 5829 5832 5835 5837 5839 5842 5845 5848 5850 5852 5855 5858 5861 5863 5865 5868 5870 5871 5873 5876 5878 5880 5882 5883 5885 5886 5888 5889 5890 5890 5890 5891 5891 5892 5893 5892 5891 5889 5890
5727 5730 5734 5739 5743 5747 5752 5756 5759 5763 5768 5773 5777 5780 5784 5788 5792 5797 5801 5805 5809 5813 5817 5820 5824 5827 5829 5832 5834 5837 5839 5842 5844 5846 5850 5853 5856 5858 5861 5863 5865 5867 5869 5872 5873 5875 5877 5878 5880 5882 5883 5884 5885 5885 5886 5888 5889 5889 5888 5887 5886 5886 5887
5719 5723 5728 5732 5737 5741 5745 5750 5754 5757 5762 5767 5771 5774 5778 5782 5786 5791 5795 5799 5803 5807 5811 5815 5819 5822 5824 5826 5829 5832 5834 5836 5838 5841 5844 5847 5850 5853 5856 5858 5860 5862 5865 5867 5869 5870 5872 5874 5876 5877 5878 5879 5880 5881 5882 5884 5884 5883 5883 5882 5883 5883 5884
5710 5716 5721 5726 5730 5735 5739 5744 5748 5752 5756 5761 5765 5769 5773 5777 5781 5784 5789 5793 5797 5801 5805 5809 5813 5816 5819 5821 5824 5827 5829 5831 5833 5836 5839 5842 5845 5847 5850 5853 5855 5858 5860 5863 5865 5866 5868 5869 5871 5872 5873 5874 5876 5877 5878 5879 5879 5878 5878 5878 5879 5880 5879
5701 5707 5713 5719 5723 5728 5733 5738 5742 5747 5750 5755 5759 5764 5768 5772 5775 5779 5782 5787 5791 5794 5799 5803 5807 5810 5813 5816 5818 5821 5823 5825 5828 5830 5833 5836 5839 5842 5844 5847 5850 5853 5856 5858 5860 5861 5863 5864 5866 5867 5868 5870 5871 5872 5873 5874 5874 5874 5874 5874 5874 5875 5875